Theta_e
349 348 349 351 350 350 349 346 343 342 343 344 346 347 346 345 344 343 342 342 343 346 347 347 347 348 350 350 351 350 350 349 350 351 352 353 353 354 354 354 353 352 349 349 351 351 350 351 352 350 350 349 349 347 345 344 344 346 349 349 348 347 348 348 349 350 350 350 349 348 349 349 349 348 348 349 350 349 348 349 349 349 350 350 349
349 348 349 350 349 350 349 346 342 343 344 345 347 347 347 346 345 344 343 343 343 345 346 346 347 348 348 349 349 350 350 349 349 351 352 352 353 354 354 354 353 351 349 350 351 351 351 351 351 351 350 350 349 348 344 343 344 346 349 349 348 347 348 349 350 350 351 351 349 348 349 349 349 348 349 349 348 348 348 349 349 349 349 349 349
348 348 348 349 350 351 349 345 343 345 347 348 349 349 349 349 348 347 346 346 345 347 347 348 349 349 349 349 349 349 350 350 351 351 351 351 352 353 354 354 354 351 350 350 351 351 351 351 351 351 351 349 349 348 344 343 345 346 349 350 349 348 348 350 350 350 350 351 350 348 348 349 349 347 348 348 348 349 348 349 349 349 349 348 347
349 349 349 351 351 350 348 346 347 347 348 348 349 349 349 349 348 348 347 347 347 347 347 349 349 349 350 350 350 350 350 350 352 351 350 351 353 352 352 353 353 351 349 349 350 351 351 351 350 350 349 348 347 348 346 344 345 346 347 349 349 349 349 350 350 350 349 349 348 347 348 349 350 349 349 348 349 350 349 349 349 349 349 348 348
348 350 351 351 350 349 348 348 349 346 346 348 348 348 348 348 348 347 348 348 348 348 348 348 348 348 349 350 350 351 350 351 352 351 351 351 351 352 352 353 352 351 349 348 349 350 351 351 351 349 345 342 341 345 348 344 345 346 347 348 349 349 349 350 350 349 349 349 348 348 349 348 350 351 350 349 350 349 349 349 349 349 349 349 349
348 350 351 351 350 351 350 349 346 344 345 345 346 346 346 346 347 346 347 348 349 349 348 348 349 349 350 350 350 351 350 351 352 352 352 350 351 352 353 352 351 351 350 348 349 350 350 350 351 347 341 341 340 345 349 344 344 347 349 349 349 349 349 349 349 348 348 347 347 348 348 349 350 350 350 350 349 348 348 348 348 349 349 348 348
348 350 351 352 352 352 350 347 344 343 343 344 345 344 345 345 346 347 347 348 348 349 349 350 350 350 351 351 350 351 351 350 351 352 352 351 351 352 353 352 351 351 350 350 350 351 350 349 350 345 343 346 344 345 345 343 345 349 349 348 348 349 349 349 348 347 347 347 347 347 348 350 350 350 350 349 348 348 348 347 347 348 348 347 347
348 349 350 351 352 351 349 345 342 343 345 346 346 345 346 346 346 347 348 349 349 349 350 350 349 349 349 349 349 350 351 351 351 352 351 351 351 351 353 353 351 350 350 351 350 350 351 350 349 346 347 349 346 341 339 341 344 347 348 348 348 348 349 348 347 347 347 347 347 347 349 350 350 350 350 348 346 347 347 347 347 347 347 346 347
348 349 350 351 350 350 347 343 343 345 346 347 346 347 348 347 348 349 350 350 350 351 350 348 348 349 348 348 349 350 350 351 352 353 351 351 352 351 352 353 350 347 349 351 350 350 350 351 349 347 348 349 348 344 342 343 345 347 348 348 348 348 348 348 347 347 346 347 348 348 349 349 349 348 348 347 346 346 345 344 345 346 346 346 347
347 348 350 350 349 349 346 342 344 346 347 348 348 349 349 350 350 351 352 351 352 352 350 347 348 349 348 349 350 351 350 351 352 352 352 352 352 351 351 353 350 347 349 350 350 349 350 351 348 345 347 349 349 347 347 347 347 349 349 348 347 347 347 346 346 346 347 348 348 348 347 348 349 347 347 347 346 345 344 343 344 345 345 345 346
347 349 349 349 349 348 344 343 345 348 349 349 350 351 351 351 351 352 351 351 352 352 350 347 349 350 349 350 351 350 351 351 351 352 353 352 353 351 351 353 351 349 349 351 350 349 349 350 349 347 347 349 349 347 347 349 349 349 348 348 346 345 346 346 346 346 347 347 347 348 348 349 349 347 347 346 345 345 344 343 343 344 345 345 346
348 348 349 349 349 347 344 344 347 349 349 349 351 352 352 351 351 352 351 351 353 352 349 347 348 350 349 349 350 350 350 351 351 351 352 352 352 351 351 352 352 350 350 351 350 349 348 349 350 348 347 348 348 347 347 347 348 348 348 346 343 344 344 345 346 346 346 346 347 347 349 349 348 348 347 345 345 345 344 342 343 344 344 344 345
348 348 349 349 349 346 343 346 348 349 350 350 351 352 351 351 351 352 351 351 353 351 348 346 347 349 350 348 349 350 350 350 350 350 350 351 351 351 350 351 351 351 352 352 350 349 348 347 347 347 347 347 347 348 348 347 346 347 347 345 343 343 343 343 343 343 344 345 346 347 348 349 349 348 347 346 345 344 342 341 342 343 343 343 344
349 349 349 349 348 346 344 348 349 349 350 351 351 351 351 350 350 351 351 351 353 352 349 347 347 349 349 348 349 350 350 350 350 350 350 350 351 351 350 350 351 350 351 352 351 350 349 347 347 347 348 348 348 349 349 348 347 346 346 346 344 342 340 340 339 339 340 341 343 345 346 348 348 348 348 347 345 343 341 341 341 342 342 343 344
349 349 349 349 348 346 346 349 349 350 350 350 350 349 349 350 350 350 351 351 352 352 348 348 348 348 348 349 350 350 350 349 350 351 350 349 351 352 351 350 350 350 349 350 352 351 351 350 349 350 351 350 350 350 350 350 348 347 346 346 344 341 339 338 339 338 338 337 339 342 344 346 346 347 346 346 345 343 342 342 342 342 343 344 345
349 349 349 348 347 347 348 349 350 350 350 350 350 349 349 349 349 350 351 352 352 352 348 346 348 348 348 349 350 350 350 349 350 350 349 349 350 351 351 349 349 350 349 350 351 352 352 351 351 351 352 351 350 350 351 352 350 348 346 345 344 341 339 339 338 338 338 338 339 341 343 344 345 345 345 344 344 343 342 342 342 343 344 345 345
349 349 348 347 346 347 348 350 351 351 350 350 350 349 349 349 349 350 352 352 352 352 348 346 347 349 349 349 350 350 349 349 349 349 349 350 350 350 351 349 349 350 350 350 350 352 352 351 351 351 351 351 350 351 351 352 351 350 347 345 344 342 340 340 339 338 338 338 339 341 342 343 343 344 343 343 343 341 341 342 343 344 344 344 345
349 348 346 346 346 347 348 351 351 351 351 349 350 350 349 349 350 351 351 351 351 351 351 347 346 348 349 350 350 349 349 349 349 349 350 350 350 350 351 350 349 349 350 350 350 351 352 350 351 350 350 350 350 351 351 352 351 351 349 346 345 342 340 341 340 340 339 338 339 341 342 342 343 342 342 342 341 341 341 342 343 343 343 343 344
349 347 345 347 347 348 349 351 351 350 350 349 350 351 351 351 351 351 351 351 350 350 351 347 346 348 349 351 350 350 350 349 350 351 351 349 349 350 350 350 350 350 350 350 350 351 351 350 350 350 350 350 350 351 352 352 351 351 350 349 346 342 340 341 342 341 340 340 340 341 342 341 341 341 341 341 341 341 342 342 343 343 342 342 343
348 346 346 347 347 348 349 350 350 349 349 349 350 350 351 352 352 352 351 352 350 350 352 349 347 347 349 351 351 350 350 350 351 351 351 349 349 349 350 350 350 350 350 351 350 350 350 350 350 351 351 350 351 351 351 351 351 350 350 350 346 342 340 341 342 342 342 342 342 342 341 341 341 341 341 341 341 342 342 343 342 341 341 342 343
348 347 347 348 348 349 350 350 349 349 349 349 350 350 350 351 352 352 352 352 351 351 352 350 349 348 348 350 350 349 349 350 351 351 351 350 350 350 350 350 350 350 350 350 350 349 350 350 350 351 351 351 351 351 351 352 351 350 350 348 345 342 340 341 341 342 343 343 343 342 342 343 343 342 341 341 341 341 342 342 341 341 342 342 342
348 347 348 348 348 349 350 350 349 348 348 349 349 350 350 350 351 352 352 352 351 351 351 351 350 349 348 347 347 347 348 349 350 350 350 350 350 350 350 350 350 350 349 349 349 349 349 349 350 351 351 351 351 351 351 352 352 350 349 347 344 343 341 340 341 342 343 343 343 343 344 344 344 343 342 342 342 341 341 340 339 340 340 340 340
348 347 348 348 349 349 349 350 349 348 348 349 349 350 351 350 352 352 352 351 350 350 350 349 348 348 348 348 346 346 348 349 349 350 350 351 351 350 351 351 351 350 348 348 347 347 348 349 350 351 351 351 350 350 350 351 351 349 347 346 345 345 343 340 340 341 342 342 343 344 344 344 344 344 344 344 344 343 342 340 340 340 339 339 340
348 348 348 349 349 349 350 350 349 348 348 349 350 350 351 351 352 352 351 351 350 349 348 347 346 347 349 349 349 348 348 348 349 350 350 350 350 350 350 350 350 350 348 346 346 345 347 348 349 350 349 349 348 348 348 349 349 348 347 346 346 346 345 341 339 341 342 342 343 344 344 344 344 345 345 344 344 343 342 341 341 342 341 340 342
348 348 348 349 348 349 350 350 350 348 347 348 350 351 351 351 351 352 350 350 350 349 348 347 345 346 347 349 349 350 349 348 350 351 351 350 350 350 349 350 348 347 346 343 343 344 345 347 347 348 347 347 347 346 346 346 347 346 346 346 346 346 346 342 340 340 341 341 342 343 344 344 344 345 345 344 344 343 343 342 341 343 343 342 342
348 349 349 348 349 349 350 350 349 348 347 347 350 350 350 351 350 351 350 350 350 349 349 348 346 346 346 347 348 350 349 349 350 350 350 350 349 348 346 346 344 343 343 342 341 341 343 345 346 346 345 346 347 347 347 346 345 345 345 346 346 346 346 343 341 340 341 341 341 343 344 344 344 344 345 344 344 344 344 342 342 344 344 344 343
348 348 348 349 349 349 350 350 349 349 347 346 349 350 349 350 350 350 349 349 350 350 350 349 348 346 346 348 348 348 348 348 348 348 349 348 346 345 344 343 340 340 341 340 340 340 341 344 345 344 344 346 347 347 347 347 345 345 345 345 346 346 346 343 341 341 341 341 341 342 342 342 342 343 345 345 345 345 344 344 343 344 344 344 344
347 347 347 348 348 349 349 349 348 348 347 346 349 350 349 350 350 349 348 348 349 349 349 349 349 347 346 347 349 348 347 347 347 347 347 346 343 343 342 341 339 339 339 339 340 340 342 343 344 344 345 346 347 347 348 347 347 346 345 345 346 346 346 345 341 339 340 341 341 342 341 341 341 342 343 344 345 346 345 346 344 344 344 344 345
346 346 345 346 347 347 348 348 347 348 346 346 348 348 348 349 349 349 348 347 347 347 348 348 349 348 347 346 348 348 346 345 346 345 344 342 341 341 341 339 337 338 339 340 341 342 343 344 345 345 345 346 346 346 347 347 347 346 345 345 345 346 346 346 343 337 337 339 340 340 341 341 341 341 341 343 345 346 345 345 344 344 344 344 345
345 346 344 344 347 347 348 349 348 347 346 346 347 347 348 348 349 348 347 347 346 346 347 347 347 348 347 346 347 348 345 344 344 343 341 338 338 338 338 337 337 338 339 340 342 343 344 344 344 345 347 347 346 346 345 345 346 345 346 345 345 345 345 346 346 340 334 335 337 337 339 341 341 340 340 341 344 345 345 345 345 345 346 345 345
345 346 345 345 348 347 348 350 349 348 346 346 347 347 347 347 349 348 347 347 345 345 348 347 346 346 347 346 346 346 344 342 342 340 338 336 336 337 337 337 337 337 338 340 341 342 343 345 346 348 349 347 346 345 345 344 344 345 345 345 345 345 345 345 346 345 338 334 334 335 336 338 339 339 338 339 342 343 343 345 346 346 346 346 346
345 346 347 348 349 347 349 351 351 348 346 346 347 347 346 346 348 348 347 347 346 347 348 348 347 346 345 345 344 345 343 341 340 339 337 338 338 338 338 338 338 339 340 342 343 345 346 348 349 349 348 347 345 343 343 343 344 344 344 345 345 345 345 345 346 347 344 339 336 335 334 335 336 337 337 337 340 341 342 343 344 344 343 344 345
346 347 348 349 350 348 349 352 351 350 348 346 346 346 345 345 348 348 347 347 348 348 348 348 347 345 343 343 343 343 341 340 340 339 339 340 341 341 342 342 343 344 345 346 347 349 349 350 348 348 348 347 345 343 343 343 343 343 343 343 344 344 345 345 345 346 346 345 342 339 337 336 335 335 335 336 337 338 340 342 342 340 340 340 340
347 349 349 350 350 349 350 352 352 352 350 347 347 347 346 345 346 347 347 347 348 348 348 348 346 344 342 341 342 342 340 340 341 342 342 343 343 344 345 345 347 347 348 349 349 350 350 349 348 348 348 347 346 345 344 344 343 343 343 343 343 344 344 344 345 345 346 346 345 344 341 340 338 337 337 336 335 335 336 337 337 336 335 335 334
349 350 350 350 349 350 351 352 352 352 351 350 347 347 346 345 345 346 346 346 347 348 349 349 346 344 343 341 341 341 341 341 343 344 345 345 344 345 345 346 348 348 349 350 351 350 349 349 348 348 347 347 347 346 345 345 344 343 343 344 344 344 344 344 345 345 345 345 345 345 344 343 342 342 341 340 336 334 334 333 334 334 332 332 331
350 350 350 351 351 351 352 352 352 352 352 351 349 348 347 346 346 345 345 346 346 348 350 350 347 345 344 343 343 342 343 343 344 344 345 345 345 346 346 347 347 348 350 351 351 350 349 349 349 348 347 347 346 346 346 345 345 346 345 345 344 344 344 344 344 345 345 345 345 345 344 345 345 344 345 344 341 337 335 334 333 332 332 332 331
350 351 351 351 352 352 352 352 351 351 351 352 350 349 347 347 346 345 345 346 347 348 350 350 349 347 346 346 346 345 345 345 345 344 345 346 346 347 346 347 348 350 352 351 350 350 349 349 349 349 347 347 346 346 346 345 346 346 346 345 345 345 345 345 345 345 345 345 345 345 345 345 344 345 345 346 345 341 339 339 338 336 336 337 339
351 351 351 351 352 352 352 352 351 350 351 352 350 348 347 347 347 347 347 348 348 348 349 351 349 348 347 346 346 346 346 346 345 345 346 346 346 347 347 348 350 351 351 350 350 351 350 349 350 350 348 347 346 346 346 346 346 346 345 346 345 345 345 345 345 345 345 345 345 344 344 345 344 345 344 344 345 344 342 342 343 342 342 343 344
352 352 352 352 352 352 352 352 351 350 351 352 350 348 347 347 348 348 349 349 349 348 349 350 349 348 347 346 346 346 346 345 345 345 346 347 346 347 348 349 350 351 350 350 350 351 350 350 352 351 350 348 347 347 347 346 346 346 345 345 345 346 345 346 346 345 345 345 344 344 344 345 345 345 344 344 344 344 344 343 343 344 345 345 345
352 352 352 352 352 351 352 352 352 350 351 351 350 349 348 348 348 349 349 349 348 348 349 349 349 348 346 346 346 346 346 346 346 346 346 347 347 347 348 349 350 350 350 350 350 351 350 351 352 352 351 350 349 347 346 346 346 345 345 345 345 346 346 345 344 345 345 344 344 344 344 344 344 344 344 343 343 343 344 344 344 344 346 345 345
351 352 352 351 351 351 352 352 352 351 350 350 349 349 348 348 348 349 349 348 348 348 349 349 349 347 345 345 345 345 346 346 346 346 347 347 347 348 349 349 351 351 351 351 351 351 350 351 352 352 351 350 350 347 346 346 345 345 345 344 343 343 344 344 343 343 343 343 343 343 344 344 344 344 343 343 343 343 343 344 345 345 345 344 343
351 351 351 351 351 351 351 351 351 351 350 350 349 348 349 348 349 349 349 348 349 348 348 349 349 347 345 345 345 346 346 346 346 346 347 348 348 349 350 351 352 352 351 351 352 352 352 352 352 352 351 351 349 347 346 345 345 345 343 344 345 343 342 341 343 343 342 342 342 343 343 343 343 343 343 342 342 343 343 344 345 345 345 343 342
351 351 351 351 352 352 351 350 351 351 350 350 349 349 349 349 349 349 349 349 349 348 346 348 349 347 345 346 346 347 348 347 347 347 347 348 349 350 350 351 352 352 352 353 353 353 353 353 352 352 352 351 349 347 345 345 346 344 344 350 350 348 348 346 344 344 342 342 341 342 342 341 342 342 342 342 341 342 342 343 344 345 345 343 342
350 351 351 351 352 352 351 350 351 351 351 350 349 349 349 349 349 349 349 349 349 349 348 348 350 348 347 348 348 349 349 347 347 348 348 349 350 350 350 351 351 352 353 352 353 354 354 352 352 352 352 351 350 349 347 346 347 345 347 352 348 351 359 351 345 344 342 343 342 342 342 341 342 342 342 342 341 342 342 343 343 344 345 344 344
349 350 351 351 351 352 351 351 352 352 351 350 350 349 349 349 350 349 350 350 349 350 351 351 351 350 349 349 349 350 349 348 348 349 349 350 350 351 352 352 352 354 353 352 353 353 353 352 352 352 352 352 351 350 349 347 348 347 347 350 350 357 361 349 345 347 343 341 341 340 341 342 341 341 342 341 341 342 342 343 343 344 345 345 345
349 350 350 351 351 351 351 351 352 352 351 350 350 349 350 350 350 350 350 349 350 350 351 351 352 352 349 348 349 350 349 349 350 350 351 351 352 353 354 354 354 355 355 353 354 353 353 353 353 353 353 353 351 351 350 347 348 348 348 349 349 353 354 348 350 353 347 343 341 340 340 341 341 341 341 341 341 341 342 343 343 343 344 345 346
348 349 349 350 351 351 351 351 352 353 352 350 350 351 351 350 349 350 350 350 350 350 350 351 351 352 351 349 350 350 350 351 352 353 352 352 353 354 355 355 355 356 355 355 354 352 353 354 354 354 354 353 352 351 350 348 347 348 349 350 349 348 349 348 351 353 352 349 344 341 341 341 340 341 341 340 341 341 341 342 342 343 343 343 345
347 348 348 350 351 351 351 351 352 352 352 351 350 351 351 350 349 350 351 350 349 350 350 350 350 352 353 351 350 351 352 353 353 353 353 353 353 354 355 355 355 355 355 354 353 352 353 354 354 354 354 353 352 351 350 349 348 348 349 350 349 348 346 347 349 347 350 356 353 345 343 342 339 340 340 340 340 340 340 341 341 342 342 342 343
347 347 348 350 351 351 352 351 352 352 353 351 350 352 351 349 349 350 351 350 349 349 349 350 350 352 354 354 352 352 352 353 354 353 353 352 353 354 355 355 355 355 354 354 353 354 354 355 354 354 354 353 353 351 351 350 350 349 350 350 350 348 346 348 349 346 346 355 357 350 346 344 342 340 340 340 339 339 340 341 341 341 342 341 342
347 347 347 349 350 351 352 351 352 352 352 351 350 351 350 349 349 350 351 351 349 349 350 350 351 352 354 355 354 353 352 352 352 352 353 353 354 355 355 354 355 355 354 354 354 355 355 354 354 354 353 353 353 352 351 351 351 351 352 352 350 349 349 349 351 349 346 347 350 348 345 346 347 343 340 340 340 340 341 341 341 341 341 341 341
346 346 347 349 350 351 351 352 352 352 353 352 351 351 349 349 349 350 351 351 351 351 352 352 353 354 355 355 354 354 354 354 353 352 353 353 354 354 354 354 355 355 354 354 355 356 355 354 353 353 354 353 353 353 352 351 351 352 353 353 352 351 351 352 351 352 349 345 348 348 343 345 347 344 343 343 341 341 342 342 342 342 342 341 341
Wind_Speed
13 13 14 12 13 13 14 14 14 14 11 10 11 12 12 12 12 11 11 12 12 13 13 13 13 13 12 12 12 13 14 14 14 12 13 14 14 14 14 15 17 17 15 14 15 15 15 17 17 17 17 16 17 17 18 18 18 16 15 16 17 17 16 16 15 14 13 13 15 15 15 15 16 15 15 15 16 16 17 17 17 18 17 16 17
16 15 15 13 13 14 14 13 14 14 10 10 10 11 12 12 12 11 10 10 11 12 12 12 11 11 11 11 11 12 13 14 13 12 12 14 14 13 13 15 17 17 16 15 16 16 16 17 17 17 16 16 17 17 18 17 17 16 15 16 17 17 17 16 14 13 12 13 14 15 15 15 15 15 15 15 16 16 16 17 17 17 16 16 17
17 16 15 14 14 13 13 13 14 12 9 9 10 10 11 11 11 11 10 10 10 11 11 11 11 10 10 10 10 11 11 12 12 11 13 14 14 13 13 14 16 17 15 16 17 16 16 17 17 16 16 16 16 17 17 16 16 16 15 15 16 17 16 15 14 13 12 13 14 14 15 15 14 14 15 15 16 15 16 16 16 16 16 16 16
18 17 14 14 13 14 13 13 13 11 9 8 9 9 10 10 10 10 9 9 9 10 10 10 10 10 9 9 9 9 10 11 10 10 13 14 14 13 13 13 15 17 15 15 17 17 16 17 16 17 16 16 16 16 16 15 15 15 14 14 15 16 15 14 13 12 12 13 14 14 15 15 13 13 14 15 15 15 16 16 16 16 16 16 16
20 17 15 14 13 14 13 13 12 10 9 8 8 8 9 9 9 9 8 8 9 9 9 9 9 9 8 8 9 9 10 10 10 10 13 14 14 13 13 14 15 16 15 14 16 18 17 17 16 17 18 17 16 15 15 15 16 15 14 14 14 14 14 14 13 12 13 13 14 14 15 14 13 12 14 14 15 15 15 15 16 16 16 16 15
21 18 16 15 14 14 13 13 12 10 9 8 8 8 8 8 8 8 8 7 8 8 9 9 8 8 7 8 9 9 10 10 10 11 12 13 13 13 13 15 14 14 15 14 15 18 18 18 17 18 19 18 16 16 15 16 18 15 13 14 14 14 14 14 13 13 14 14 14 14 14 13 13 13 13 14 15 15 15 15 15 16 16 15 15
22 19 17 15 14 14 14 12 11 10 9 8 8 8 8 7 7 7 7 7 7 8 8 8 7 7 7 7 9 10 10 10 11 11 11 11 12 13 13 15 14 13 14 13 15 16 17 18 19 19 18 17 16 17 17 18 17 15 14 14 14 13 13 13 13 14 15 14 14 14 14 13 13 13 13 15 16 15 15 15 15 15 15 15 15
22 19 17 16 14 14 14 12 11 10 9 9 8 8 8 6 6 6 6 7 7 8 9 7 5 6 7 7 8 10 9 9 10 11 11 10 11 13 13 15 14 13 13 13 14 15 16 17 19 19 17 17 16 17 18 17 16 14 14 14 14 13 13 13 14 15 14 14 14 13 13 12 13 13 13 14 15 15 14 14 14 14 14 14 14
22 19 17 15 14 14 13 11 10 9 9 8 8 8 7 6 6 6 6 7 7 9 9 5 4 5 6 7 8 9 8 8 9 11 12 10 10 11 12 15 14 13 13 14 14 13 15 16 18 18 17 17 16 16 17 16 15 14 14 14 14 13 13 13 13 13 14 14 13 13 12 12 13 13 13 14 13 13 14 14 13 13 13 13 13
22 19 17 14 14 13 12 11 9 8 8 8 8 7 7 7 6 6 6 6 8 11 9 4 5 6 6 7 8 8 8 8 8 9 10 10 10 10 11 14 14 13 13 15 14 13 15 16 18 19 18 17 15 15 16 15 14 14 14 14 14 13 13 13 13 13 14 14 13 12 12 11 12 12 13 12 13 14 14 13 13 12 12 12 12
21 19 16 14 13 12 11 10 8 8 8 8 7 7 6 6 6 6 6 7 10 13 9 4 6 7 6 6 7 7 8 8 7 7 9 10 11 11 11 13 14 14 13 15 15 13 15 17 17 18 18 17 15 14 14 14 14 14 14 13 12 12 12 13 13 13 14 13 13 12 12 10 10 12 13 12 13 14 13 13 12 12 11 11 12
20 18 16 14 13 12 10 9 8 8 7 8 7 7 6 6 6 6 6 8 12 13 9 4 6 8 5 5 7 7 7 7 6 7 8 9 11 11 11 13 13 13 14 16 17 16 16 17 16 16 17 17 17 15 14 13 13 13 13 12 11 12 12 12 12 13 13 13 13 12 11 10 11 12 13 13 13 13 12 12 12 11 11 11 11
21 18 15 14 12 11 10 8 8 8 7 7 7 6 6 6 6 6 7 9 11 13 8 3 6 8 7 5 6 7 7 7 6 7 8 8 10 11 12 12 12 13 14 16 18 18 18 17 15 15 15 16 17 16 14 13 13 12 11 11 11 11 11 11 11 12 12 12 13 12 11 10 11 12 12 13 13 13 12 12 11 11 11 10 10
21 18 15 14 12 10 9 8 7 7 7 7 6 6 6 6 6 7 8 9 11 13 8 4 7 8 7 7 7 8 7 7 8 8 8 9 10 11 12 12 12 12 13 15 17 19 19 18 18 17 15 15 17 16 15 14 13 12 11 11 11 10 10 11 11 11 12 12 12 12 12 11 11 12 12 12 13 12 12 11 11 10 10 9 9
20 17 15 14 12 10 8 7 7 7 7 7 6 5 6 6 6 8 9 10 11 11 7 5 7 7 6 7 8 8 7 8 9 8 8 9 10 11 12 11 12 13 13 15 16 17 18 17 18 18 16 16 16 15 14 13 12 11 11 11 10 9 9 10 11 11 12 12 12 11 11 10 10 11 11 11 11 11 11 10 10 9 9 8 8
19 17 15 14 13 10 9 7 7 7 7 6 6 6 6 6 8 9 9 10 10 11 7 5 7 8 7 7 8 7 8 9 9 8 8 9 10 11 12 12 13 14 14 15 15 16 16 16 15 15 15 15 15 14 12 12 11 11 11 10 9 9 9 10 11 11 12 12 12 12 11 10 9 9 9 9 10 10 9 9 8 8 8 8 8
18 17 16 14 13 11 9 8 8 7 7 6 6 6 7 7 8 8 9 9 10 12 9 6 7 8 8 9 9 9 9 9 9 9 9 9 10 12 14 13 14 14 14 15 15 15 15 15 14 13 13 14 13 11 10 11 11 11 11 10 9 8 8 9 10 10 10 11 11 12 10 9 8 8 8 8 9 8 8 8 7 7 7 7 8
18 17 16 14 12 10 9 8 8 8 7 6 6 6 6 7 8 8 9 10 10 12 10 6 6 8 10 10 10 10 10 10 10 11 10 9 10 12 14 14 14 14 13 15 15 14 14 15 15 14 13 13 12 10 10 10 10 10 10 9 8 7 7 8 9 9 9 10 11 11 10 8 8 7 7 7 7 7 7 7 6 6 6 6 6
18 17 15 13 12 10 9 9 8 8 7 7 7 7 7 7 8 8 9 10 10 12 11 8 7 8 11 11 10 11 11 10 11 11 11 10 11 12 13 14 15 14 13 15 14 12 14 16 16 15 13 12 11 10 10 10 10 9 9 9 8 7 6 7 7 8 9 9 9 9 9 8 7 7 6 6 6 6 6 6 5 6 6 5 5
18 17 15 13 12 10 10 9 9 8 7 7 7 7 7 7 7 7 8 9 9 11 13 11 8 8 9 11 11 12 13 12 11 12 12 12 11 11 13 14 14 14 13 14 13 11 14 16 16 15 13 12 11 11 10 9 9 8 8 8 7 6 5 5 6 7 7 8 8 8 8 7 7 6 6 5 5 5 5 4 4 4 4 4 4
17 15 14 13 12 11 10 10 9 8 8 7 8 7 7 8 7 7 8 9 9 10 13 14 11 8 8 8 11 13 13 13 12 12 13 13 12 12 12 13 13 13 12 12 12 12 13 15 15 14 13 12 11 10 9 8 8 7 7 7 7 5 4 4 5 5 6 6 6 6 7 6 6 5 5 4 4 4 3 3 3 3 3 2 2
16 14 13 13 12 11 10 10 9 9 8 7 8 7 7 8 8 7 8 8 8 9 12 13 14 11 8 7 9 12 13 13 13 14 14 13 13 12 12 13 13 13 12 11 11 11 12 12 13 13 12 11 10 9 8 7 7 6 6 6 7 5 4 3 3 4 4 5 5 5 5 5 4 4 3 3 3 2 2 2 2 2 2 2 1
16 14 13 13 12 11 10 10 9 9 9 8 7 8 8 7 7 7 7 7 7 9 10 12 14 14 13 11 10 10 12 13 14 14 14 14 13 13 12 13 13 12 11 11 10 10 11 10 10 11 11 10 9 8 7 6 6 5 5 5 6 5 4 3 2 2 3 4 4 4 4 4 3 3 2 2 2 2 2 2 1 2 2 2 2
15 14 14 13 12 12 11 10 9 9 9 8 7 7 8 7 7 6 6 7 8 8 9 11 13 13 14 15 13 11 10 12 13 13 14 14 13 13 12 13 13 12 11 11 10 10 10 9 9 9 10 9 8 7 5 5 4 4 4 5 5 5 4 2 2 1 1 2 3 2 3 3 2 2 1 1 1 1 1 2 2 2 3 3 3
15 14 14 13 12 12 11 10 9 9 9 8 8 7 8 7 7 7 6 7 8 9 9 10 12 13 14 14 14 13 12 12 12 13 13 13 13 13 12 12 11 11 10 11 11 10 9 9 8 8 8 8 7 5 4 3 3 3 3 4 4 5 5 3 1 0 0 0 1 2 2 2 2 1 0 1 2 2 2 2 2 2 3 4 4
16 15 15 13 12 12 11 10 10 9 8 9 8 8 8 7 7 7 7 7 8 8 8 9 11 11 12 12 12 12 12 12 11 12 12 12 12 12 11 10 10 10 10 10 11 10 9 9 8 7 7 6 5 4 2 1 2 2 3 3 4 5 5 4 1 1 1 2 1 2 2 1 1 1 1 2 2 3 4 4 2 2 4 5 5
17 16 16 14 12 12 12 11 10 10 9 9 9 8 8 8 7 6 7 7 7 7 7 7 9 9 10 9 9 10 11 11 11 11 10 10 10 10 10 9 9 10 10 10 10 10 10 9 8 7 5 4 3 2 1 1 2 3 3 4 4 4 5 4 2 2 3 3 3 2 2 2 2 2 2 2 3 4 5 5 4 3 4 5 5
17 16 17 15 13 12 12 11 10 10 10 10 10 9 9 9 8 7 7 7 7 7 6 6 7 7 7 7 7 8 9 10 10 10 9 9 10 10 9 9 10 10 10 10 10 11 10 8 7 5 4 2 1 1 1 1 3 4 4 4 4 4 5 5 3 2 4 4 4 3 3 3 3 4 4 4 4 5 5 6 5 5 5 5 5
17 17 17 16 15 14 12 11 11 11 11 11 11 10 10 10 8 8 7 6 6 6 5 5 5 5 6 5 5 6 8 9 9 9 9 8 9 9 9 9 10 10 10 10 10 10 9 7 5 3 1 1 3 3 4 4 4 5 5 5 5 5 5 5 5 3 3 4 4 4 4 4 5 5 5 4 4 4 5 6 6 6 6 6 5
18 17 17 16 15 14 13 12 11 11 11 12 12 11 11 11 9 8 7 6 6 6 4 4 5 5 5 5 5 6 6 7 8 9 9 9 9 10 10 10 10 10 10 10 10 9 7 5 2 1 3 5 5 5 6 7 6 6 6 6 5 5 5 5 5 5 4 4 4 4 4 5 5 6 6 5 4 4 5 5 5 6 6 6 7
18 17 17 16 15 15 14 12 11 11 12 12 12 12 12 11 10 9 8 6 6 6 4 4 5 5 5 5 5 6 6 7 8 9 9 9 9 10 10 10 10 10 9 9 8 6 5 2 2 3 4 4 4 5 7 7 7 7 7 6 5 5 5 5 5 6 5 4 4 4 4 5 5 6 6 5 5 5 5 5 5 5 6 7 7
18 18 18 17 16 16 14 13 12 12 12 12 13 13 12 12 11 9 8 6 5 5 4 4 5 5 5 5 6 6 7 8 8 9 9 9 9 9 9 9 9 9 8 7 5 4 2 1 2 3 4 4 3 4 5 5 5 6 6 5 5 5 5 5 5 5 6 6 5 5 4 5 5 5 5 5 5 6 5 5 5 6 6 7 7
20 19 18 18 17 16 15 14 13 12 12 12 13 13 12 12 11 10 9 7 5 5 4 4 4 5 5 6 6 7 8 9 8 8 8 7 8 8 8 7 7 6 6 4 3 2 1 2 3 3 4 4 4 3 3 4 4 4 4 4 5 5 5 5 6 6 6 6 6 6 5 5 5 5 6 6 6 6 6 6 6 6 6 7 7
20 19 19 18 18 17 16 15 14 14 12 12 13 12 12 12 11 10 10 8 6 5 4 4 5 6 6 6 7 8 9 9 8 7 6 6 6 7 6 5 5 4 4 3 3 2 2 3 3 3 3 4 4 4 4 5 5 5 5 5 6 6 7 7 7 7 6 6 7 7 6 5 5 5 6 7 7 7 6 6 6 6 7 7 7
20 20 20 19 19 18 17 16 16 15 13 13 13 12 12 12 12 11 11 9 7 6 5 5 5 6 7 7 7 8 8 8 7 6 5 5 5 6 6 5 4 4 4 3 3 2 2 2 2 2 2 2 3 5 5 5 6 7 8 8 8 8 8 9 8 8 8 7 7 7 6 6 6 6 7 7 7 7 7 6 6 6 7 7 8
22 22 21 20 20 19 18 17 16 16 14 13 12 12 11 11 12 12 11 10 8 7 6 5 6 7 8 8 7 7 7 7 6 6 5 5 5 6 6 5 5 4 4 3 2 1 1 1 2 2 2 2 3 3 4 4 6 8 9 9 9 10 10 10 10 9 9 8 8 7 6 6 6 7 8 8 8 7 7 7 6 6 6 7 8
23 23 22 21 20 20 19 18 16 15 15 14 12 12 12 11 12 11 11 10 9 8 7 5 6 7 8 8 8 7 7 7 7 6 6 6 6 7 6 6 5 5 4 2 1 0 0 1 2 2 3 3 3 3 3 4 6 8 8 8 9 9 9 10 10 10 9 9 8 7 7 6 6 7 8 8 8 7 7 7 7 6 6 7 7
24 24 23 22 21 20 19 18 16 15 14 14 13 12 12 11 11 11 11 10 9 8 8 7 6 7 9 9 8 7 8 8 8 7 7 7 7 7 7 6 6 5 4 3 2 1 0 1 2 2 3 3 3 4 4 4 6 6 7 7 7 7 7 8 8 9 8 9 8 8 7 7 7 7 8 8 8 7 7 6 6 6 6 6 7
24 23 23 22 21 20 20 19 17 15 14 14 13 12 12 12 12 12 11 11 10 9 9 8 6 6 8 9 8 8 8 8 8 7 7 8 8 8 7 7 6 5 4 3 2 1 1 2 3 3 3 4 4 4 4 5 5 5 5 5 6 7 7 7 8 8 8 8 8 7 7 7 7 8 8 8 8 8 7 7 6 6 6 6 7
24 23 23 22 21 21 20 19 18 16 15 14 13 14 14 13 13 12 12 12 11 10 10 8 6 6 8 8 8 9 9 9 8 7 7 8 8 8 8 8 6 5 3 2 1 1 0 1 3 4 4 4 4 4 5 5 4 4 4 5 6 7 7 7 8 8 9 9 8 8 7 7 8 8 8 8 8 8 8 7 7 6 7 7 7
23 23 23 23 23 21 20 20 19 17 16 16 15 16 16 15 14 14 13 13 12 11 10 9 6 7 9 9 9 9 8 8 8 8 7 8 9 9 9 8 6 4 3 2 1 0 1 2 3 4 4 5 5 4 5 5 4 3 4 5 5 5 6 7 7 8 9 9 9 9 9 9 8 8 8 8 8 7 7 7 7 7 7 7 7
24 25 25 25 24 22 21 20 19 18 17 18 18 18 18 17 16 15 14 13 13 12 10 9 7 8 10 10 9 8 8 9 9 9 8 9 10 10 9 8 6 5 3 1 0 1 2 1 3 4 4 5 5 4 5 5 4 3 3 4 5 5 3 4 7 8 8 8 8 9 9 8 8 7 7 7 6 6 7 7 7 7 8 7 6
25 26 26 26 25 24 22 21 20 19 18 19 19 19 18 17 15 14 13 13 13 11 10 9 8 8 10 10 9 9 9 9 9 9 10 10 10 10 9 8 6 5 3 1 1 2 2 2 2 3 3 4 5 4 4 5 5 3 3 3 3 4 3 6 11 10 6 6 6 7 8 7 7 6 6 5 5 5 6 7 7 7 7 7 5
24 25 26 26 26 26 25 23 21 19 19 20 20 20 18 16 14 12 13 13 12 12 11 10 10 10 10 10 9 9 9 10 10 10 11 11 10 9 8 7 5 4 3 3 3 3 3 3 2 2 3 4 5 5 3 4 5 4 2 1 0 2 1 6 11 10 10 7 5 6 6 6 6 5 5 4 4 5 5 6 7 7 7 6 5
25 27 27 28 27 27 26 24 22 20 20 21 21 20 18 17 15 14 14 14 13 13 14 13 12 11 11 11 10 10 10 11 11 11 12 12 10 8 7 6 5 4 4 4 4 3 3 3 2 2 2 3 5 6 3 3 5 4 3 1 1 1 1 4 7 7 11 10 6 6 5 5 5 4 4 4 4 4 5 6 6 6 7 6 6
27 29 30 30 29 28 27 25 23 22 22 23 22 21 19 18 17 16 17 18 16 17 17 16 15 14 13 13 12 12 12 12 11 12 13 12 10 8 7 6 5 5 5 4 4 4 3 3 2 1 1 2 4 5 4 3 4 5 5 3 2 0 2 4 3 3 8 10 9 8 4 4 4 4 5 5 5 5 6 6 6 6 7 7 7
28 29 29 29 29 29 29 27 25 24 24 24 23 22 20 19 18 18 18 20 20 20 19 17 16 14 13 13 13 13 13 13 12 12 12 11 10 8 7 6 6 5 6 5 4 4 4 3 2 1 1 1 3 4 4 3 2 3 5 4 3 2 2 3 1 1 4 7 10 12 9 5 4 5 6 6 6 7 7 7 7 7 7 7 8
28 28 28 29 29 30 30 28 27 26 25 25 25 23 21 21 21 18 17 19 20 20 19 18 17 15 14 14 14 15 15 14 13 12 11 11 10 8 7 6 6 7 7 6 5 4 4 3 3 2 1 1 3 3 3 3 2 2 3 4 5 4 3 4 4 2 0 2 7 10 12 10 6 6 7 7 8 8 8 8 8 8 8 8 8
28 29 30 31 30 31 30 29 28 27 26 27 26 24 23 23 22 20 18 18 18 19 19 19 19 17 16 15 15 15 16 15 14 12 11 11 10 9 8 8 8 8 7 6 5 5 4 4 3 2 2 1 2 2 2 2 2 3 3 4 5 5 4 5 7 6 2 1 2 4 10 12 8 7 7 7 9 9 9 8 8 8 8 8 9
29 30 30 30 30 30 30 30 29 28 27 28 27 25 25 24 22 20 19 18 19 20 19 20 20 19 18 16 16 15 15 15 14 13 12 11 11 10 10 10 9 8 7 6 6 5 5 4 3 3 2 2 1 1 1 2 2 3 4 4 5 6 4 4 7 7 3 2 1 3 7 9 8 8 8 7 9 9 8 8 8 8 8 9 10
27 28 28 29 30 30 31 31 31 29 29 28 27 26 27 26 23 21 20 19 21 22 21 21 21 21 20 18 17 16 15 14 13 13 13 12 12 12 10 9 8 8 8 7 6 6 5 4 3 3 3 3 2 2 2 2 2 2 2 4 5 6 5 5 7 7 4 2 1 3 6 6 6 8 9 8 8 8 7 7 8 8 8 9 10
Wind_Direction
153 142 132 127 123 118 112 113 106 101 108 119 115 112 111 109 108 106 107 106 106 103 102 101 101 103 103 104 104 107 111 114 115 110 109 111 111 110 110 111 110 109 109 110 106 104 107 109 113 119 118 115 112 112 113 117 119 115 108 106 108 110 108 102 96 93 90 89 97 103 99 92 92 94 94 95 93 92 93 92 91 89 87 88 88
151 145 137 131 122 114 113 114 111 109 118 124 117 114 111 110 110 109 107 105 103 100 100 100 101 104 104 106 107 110 113 117 118 115 112 109 106 103 105 108 108 106 107 110 110 110 110 110 113 117 116 115 115 114 114 117 120 116 108 106 109 112 108 100 97 94 93 93 99 104 99 93 93 94 94 94 94 92 92 89 88 89 87 87 88
145 146 139 130 122 118 119 116 114 116 125 126 119 115 112 111 110 109 108 107 105 101 99 99 99 100 103 106 110 113 116 118 119 120 120 114 108 106 104 104 106 105 109 113 114 115 114 113 116 116 114 115 113 112 114 119 120 116 110 109 113 113 108 102 100 98 98 98 101 105 102 96 94 97 97 95 93 91 90 89 88 88 87 86 86
146 146 141 132 126 122 120 118 116 122 129 125 118 114 111 111 110 110 110 109 105 102 99 98 98 99 102 104 108 113 117 119 121 124 119 112 108 108 106 103 105 107 111 116 118 119 119 118 119 117 114 113 112 112 116 122 122 117 111 112 116 113 109 105 103 102 101 101 103 105 102 99 98 99 98 96 92 90 89 88 86 85 85 84 82
147 144 142 132 125 122 120 122 125 130 130 123 119 114 113 113 111 112 109 106 102 99 99 99 100 100 104 107 108 112 119 122 124 124 119 115 113 113 111 107 106 109 114 118 119 121 124 124 120 118 115 111 110 112 117 122 121 116 110 111 113 112 109 105 104 104 101 106 108 105 103 101 100 98 97 96 92 89 87 86 87 86 84 82 81
148 145 141 133 131 130 129 131 132 133 128 126 121 116 116 114 111 108 103 101 98 95 95 98 103 112 117 115 113 115 121 127 126 121 120 123 125 121 115 113 112 113 118 122 121 121 128 128 121 119 115 108 105 110 116 119 118 112 108 109 110 108 106 104 106 107 107 110 109 107 105 102 100 97 95 94 91 88 87 87 88 87 85 84 81
149 147 144 140 140 135 133 133 132 130 127 126 120 118 114 111 111 105 102 100 97 94 93 101 118 131 125 118 120 119 120 128 128 120 121 131 132 124 115 115 116 118 122 125 125 123 128 128 123 122 116 108 106 110 114 117 116 113 109 108 107 104 104 105 108 110 112 112 108 107 105 100 98 96 92 91 89 88 88 86 85 84 83 82 80
151 149 146 143 138 132 132 130 129 128 127 125 121 121 118 115 113 107 107 104 102 98 96 108 130 129 119 124 124 119 119 125 126 122 126 136 131 125 116 112 118 126 127 125 127 127 127 126 127 126 118 114 113 112 115 116 116 113 111 108 105 103 102 105 110 112 112 110 107 105 103 98 97 94 90 90 89 89 88 86 84 82 81 81 80
153 151 147 142 136 132 129 127 127 127 125 122 121 120 117 114 111 109 107 107 107 98 94 106 121 113 115 123 115 114 122 124 124 125 131 136 129 126 118 113 122 132 132 127 129 133 129 127 130 128 120 118 117 116 118 118 118 115 111 107 104 103 104 109 113 114 111 107 104 103 102 97 97 95 91 89 89 89 88 86 84 82 82 80 78
154 151 147 141 134 131 126 127 126 125 122 117 115 113 112 109 110 108 105 108 101 91 91 107 114 107 116 113 106 113 122 125 126 124 127 132 128 126 121 114 121 134 136 129 130 135 130 127 128 128 124 119 116 119 120 119 118 114 109 105 104 104 108 116 118 115 110 106 105 105 103 97 97 97 93 89 89 88 86 85 84 83 82 80 77
153 150 147 139 133 130 126 127 127 125 118 114 109 107 108 106 105 102 100 101 94 92 98 122 116 107 117 118 113 116 121 125 125 122 123 127 124 124 124 115 121 136 135 125 126 131 126 123 125 129 128 121 119 121 119 116 114 110 107 105 107 110 114 119 119 114 110 108 106 104 103 99 97 95 93 92 91 88 86 86 84 84 83 82 79
151 149 145 138 134 131 128 129 128 122 115 114 107 103 105 105 102 97 95 92 92 95 104 129 115 106 111 121 119 113 120 130 129 124 123 122 118 120 123 116 120 130 126 121 124 126 120 118 125 134 131 125 122 121 118 115 112 109 106 107 110 112 116 117 116 113 110 108 104 102 102 97 94 94 96 96 91 87 85 85 84 84 83 81 78
150 149 144 139 136 132 131 131 126 119 117 113 106 104 104 107 105 100 93 88 88 93 103 107 96 98 99 109 114 109 117 130 132 128 125 122 118 119 119 115 116 118 120 122 124 125 120 121 129 132 129 125 122 120 119 117 114 111 108 109 112 113 115 114 111 109 107 106 103 101 99 94 93 93 96 94 88 85 83 83 84 84 83 80 78
150 149 145 141 136 134 135 133 127 121 118 111 107 108 107 110 106 102 95 88 85 90 96 82 84 91 93 100 103 106 116 125 125 123 125 124 119 116 113 113 114 117 120 119 121 121 120 126 132 132 131 127 123 122 121 118 115 113 112 110 111 114 115 111 106 103 102 101 99 98 96 92 90 88 88 87 84 82 81 82 84 84 84 82 79
151 149 146 143 138 138 140 132 126 119 114 110 108 108 112 116 108 100 92 89 85 86 82 67 83 84 85 94 97 101 108 113 118 120 122 122 118 113 111 114 117 120 119 113 114 115 117 125 127 131 136 131 124 122 119 117 115 114 113 108 106 111 112 107 102 99 97 97 97 96 92 89 86 85 84 82 82 81 82 84 86 86 84 82 78
151 149 149 145 142 142 140 130 126 118 113 112 108 110 116 117 111 102 94 90 87 85 76 62 78 80 81 89 93 99 101 105 114 121 120 120 121 118 117 121 123 123 120 114 112 112 113 116 117 124 129 125 120 116 111 114 118 114 109 102 100 106 109 103 97 94 92 94 98 97 92 89 87 85 84 81 81 82 85 87 86 85 82 79 73
152 151 152 147 146 144 139 135 130 125 118 115 111 114 119 117 112 106 101 96 90 88 82 72 81 86 87 88 93 97 101 105 109 112 114 121 125 123 122 125 125 121 119 116 113 110 107 106 108 113 114 113 114 108 102 111 117 111 105 98 96 104 107 101 96 93 91 94 96 95 92 92 90 86 85 82 82 85 88 90 87 83 80 75 69
153 154 153 148 149 146 144 143 138 132 125 121 117 116 118 117 111 107 105 99 93 90 85 78 76 81 82 85 93 97 100 103 105 107 113 122 125 124 121 122 123 118 115 113 112 109 104 103 105 109 112 111 110 105 103 107 107 105 102 96 95 103 109 105 99 97 94 93 94 94 93 91 91 89 87 86 86 90 92 90 87 81 75 70 66
155 156 155 152 153 151 150 150 147 138 131 128 122 122 120 115 111 107 105 100 95 94 92 81 66 71 80 85 92 99 100 98 102 106 113 121 122 122 120 120 121 118 114 111 111 106 101 104 104 109 115 113 108 103 99 97 96 97 98 97 97 100 109 108 102 101 98 95 94 95 95 93 91 91 89 89 91 92 91 89 84 78 72 67 63
156 158 158 158 159 157 156 155 151 141 135 131 127 130 127 119 112 109 107 104 102 98 93 88 76 69 80 90 98 102 100 99 102 104 110 117 118 120 120 120 120 116 113 111 111 103 97 102 101 102 107 108 105 98 92 89 91 94 94 93 89 91 103 107 105 105 103 101 100 99 99 97 94 92 90 89 91 90 88 85 78 72 69 67 64
158 162 160 164 164 162 162 158 155 144 139 137 131 130 130 126 118 114 113 108 106 100 96 99 99 83 76 86 95 98 97 99 102 103 109 114 116 118 117 117 116 114 111 106 106 102 96 99 99 97 98 98 97 92 86 84 86 92 91 79 70 79 97 102 105 106 105 106 109 106 103 102 98 95 93 90 87 84 82 75 64 59 62 60 61
162 164 164 170 170 168 168 162 157 149 143 143 134 128 133 130 119 114 113 110 108 104 102 105 107 105 97 80 81 90 96 98 99 104 106 109 114 117 117 113 111 110 109 104 104 104 98 97 97 95 94 92 91 90 87 85 85 84 79 65 61 73 90 97 101 101 103 109 113 111 107 109 104 99 94 88 81 74 67 53 47 34 24 22 17
165 167 170 176 175 173 174 168 161 153 147 148 137 129 133 130 122 118 114 113 111 109 105 102 106 112 111 99 90 91 95 96 98 103 105 107 110 114 115 110 107 104 107 108 106 108 104 100 99 94 94 93 92 93 90 88 84 75 64 53 54 59 70 94 104 96 98 109 115 112 113 115 109 102 90 80 69 49 36 17 14 5 1 359 346
170 172 174 179 180 178 179 173 167 160 154 154 147 137 137 135 133 129 122 118 116 114 107 101 104 111 114 113 112 106 99 97 97 101 103 106 107 108 109 105 106 107 114 118 115 117 116 117 112 101 98 94 90 89 83 76 70 60 44 34 35 37 46 76 103 90 85 110 122 120 127 129 121 116 85 43 21 9 358 335 338 359 356 348 334
173 176 178 182 183 184 184 176 173 171 166 166 159 152 151 146 142 136 133 129 125 122 111 103 103 108 113 116 116 110 106 104 101 103 103 105 106 108 108 105 110 117 124 126 124 127 129 133 128 113 105 95 86 82 74 61 48 39 20 8 10 14 20 35 83 61 355 236 157 147 150 150 148 157 221 316 320 320 311 309 327 350 344 337 330
176 180 182 185 187 188 190 183 180 182 180 181 171 164 163 157 153 147 145 140 131 126 116 106 103 106 110 113 114 108 110 112 110 110 108 110 112 112 112 110 115 121 126 128 130 136 139 141 139 130 118 103 88 78 65 30 5 9 352 339 346 358 6 7 346 282 285 272 233 193 184 194 201 212 250 287 295 299 300 302 309 328 332 330 330
179 184 186 187 190 194 196 190 187 190 190 192 184 174 171 167 162 155 154 149 136 128 118 108 104 107 107 107 108 107 113 118 117 115 112 114 114 115 116 116 120 123 126 131 136 142 145 146 144 140 130 115 93 75 46 345 315 319 323 324 333 345 356 358 331 272 266 269 258 242 236 247 249 246 259 271 281 290 296 303 305 312 319 324 331
181 185 189 190 193 199 201 197 194 197 197 197 194 185 178 174 168 163 160 154 144 133 122 111 103 107 108 102 99 103 113 119 122 118 112 113 116 118 119 121 124 125 129 133 138 142 144 145 144 142 132 115 67 319 292 295 295 298 310 319 324 332 343 352 344 289 266 267 265 269 275 281 276 267 266 263 274 290 296 301 305 309 313 315 323
186 188 192 194 197 201 202 201 200 200 200 198 197 189 182 180 176 169 164 161 157 145 132 120 108 105 106 104 99 102 112 119 123 119 112 114 117 119 121 123 125 125 130 134 136 137 139 140 136 132 118 311 302 293 284 284 286 292 303 314 319 326 331 341 348 331 289 276 272 279 285 288 285 282 282 274 277 293 300 307 312 316 317 314 314
191 191 193 196 199 201 203 203 202 202 200 197 195 189 183 185 181 174 169 167 167 157 147 129 115 110 104 106 113 111 114 119 121 117 113 115 116 119 122 125 127 127 132 137 140 141 140 140 145 270 294 294 294 287 281 280 283 290 299 309 317 321 324 331 342 344 332 307 293 287 284 286 286 287 292 292 287 285 290 302 312 316 314 312 310
193 194 196 196 196 201 205 204 204 202 200 198 194 189 187 189 184 180 177 174 174 167 156 136 118 115 111 114 125 125 122 120 119 117 115 116 116 118 122 126 129 131 134 140 145 149 153 172 262 297 309 309 305 293 283 280 280 284 292 301 309 311 316 323 332 343 347 342 328 309 296 291 289 291 297 300 296 289 287 292 301 305 301 300 302
195 197 198 196 195 201 205 206 205 202 201 200 196 191 193 193 188 186 186 183 184 177 165 149 125 116 118 123 133 133 129 125 121 120 121 120 119 119 122 126 129 133 136 143 150 160 181 265 320 338 351 352 340 304 282 282 283 283 287 290 296 303 311 316 325 337 348 352 346 332 317 309 306 306 310 309 305 302 299 299 301 302 301 299 301
197 200 199 197 197 201 204 207 205 203 203 201 200 197 195 196 194 193 193 195 195 188 180 163 139 127 127 131 141 139 133 132 128 127 129 127 127 126 127 131 135 140 144 148 153 149 78 21 13 11 11 4 359 336 291 288 297 300 300 296 297 305 310 311 319 328 340 350 351 346 335 328 326 326 328 327 324 320 314 310 309 309 311 312 312
196 199 200 199 197 198 203 208 207 205 204 204 206 203 198 197 199 201 201 205 203 195 191 172 152 143 141 142 146 143 139 138 138 138 139 142 144 141 142 147 148 153 152 146 136 103 47 32 25 12 6 358 357 350 327 305 300 307 313 312 312 312 308 310 316 320 331 341 346 349 347 345 346 347 350 349 344 337 330 325 321 320 321 324 327
196 198 200 200 196 197 201 206 208 208 207 207 209 208 204 199 200 204 204 207 208 199 196 183 169 162 157 155 153 150 150 151 154 155 158 167 169 164 163 164 163 160 149 136 118 75 38 35 22 359 353 347 349 348 341 327 311 308 311 311 313 312 309 310 310 313 323 331 336 341 346 352 356 0 2 1 358 349 342 336 331 329 330 334 337
197 198 200 198 196 198 199 204 208 209 209 209 209 210 206 199 198 202 203 207 212 206 199 190 186 184 177 173 171 171 173 177 181 182 183 185 180 174 170 169 169 162 150 140 120 58 24 26 359 345 340 338 349 346 336 331 323 316 311 308 309 309 310 312 311 312 315 318 324 327 333 347 355 359 1 2 3 360 353 345 339 339 342 346 350
198 199 198 197 196 197 198 203 209 209 210 209 207 208 206 201 197 199 202 208 213 210 205 201 200 201 199 194 191 193 197 200 199 195 190 185 177 169 166 169 168 161 159 162 154 115 3 25 7 348 339 337 349 349 333 324 325 321 313 309 310 310 312 315 314 313 312 312 314 315 319 332 345 353 356 357 358 358 356 351 349 352 355 359 4
197 199 200 200 199 198 198 203 210 209 210 209 206 205 205 205 203 202 204 209 215 213 212 214 214 214 212 207 202 199 202 204 199 191 181 177 172 166 166 167 164 166 177 184 175 152 47 40 28 10 352 350 356 352 344 337 332 326 316 313 316 319 323 325 324 321 320 318 315 312 313 319 332 342 346 349 349 348 347 348 351 355 357 0 4
196 198 201 202 201 201 200 202 207 208 207 209 207 203 205 206 207 207 208 212 214 212 212 213 214 213 209 205 201 196 195 198 194 186 179 176 173 168 166 167 168 176 187 186 170 137 73 30 24 26 18 11 10 357 354 352 343 332 322 323 327 327 331 336 336 334 330 329 324 318 316 318 326 333 339 341 340 339 339 339 344 350 353 353 354
196 197 199 201 202 202 201 201 205 204 202 206 205 201 202 204 208 208 207 207 206 206 205 202 201 197 197 195 194 193 191 193 192 187 183 179 176 170 168 170 174 182 189 181 150 104 13 1 15 30 30 27 24 4 357 355 338 324 320 326 326 314 314 326 331 331 330 331 329 324 322 324 327 333 338 336 333 333 335 335 336 341 346 351 353
195 196 197 200 202 203 202 202 203 201 198 199 200 199 198 199 204 204 200 197 196 199 198 194 189 186 192 192 191 194 194 195 195 191 187 183 177 173 171 174 177 182 188 173 123 13 319 347 13 25 27 27 27 8 2 358 341 335 328 329 340 321 304 312 318 319 322 323 325 326 328 329 332 340 342 335 330 329 332 335 335 340 343 348 356
193 195 197 200 202 204 204 203 203 200 196 195 195 198 198 196 197 196 193 191 190 190 187 185 181 180 189 192 193 198 200 199 197 194 191 184 179 178 179 178 179 181 182 168 35 303 296 319 0 18 22 21 23 16 17 19 20 26 357 343 8 6 327 327 334 324 316 315 322 329 333 337 342 346 343 336 333 333 334 336 338 344 345 348 357
194 195 197 199 201 203 205 203 201 199 194 193 193 195 196 195 192 189 186 187 188 184 181 179 177 179 187 193 199 202 203 201 197 196 192 186 184 187 189 188 185 184 184 213 253 262 276 291 330 358 14 23 30 28 24 25 29 28 14 7 6 3 4 358 356 0 355 328 326 336 338 344 351 347 341 339 341 342 340 340 343 348 350 352 356
195 196 196 197 199 202 204 200 198 196 193 192 192 192 192 191 192 190 187 188 187 184 184 185 181 179 186 194 201 202 203 200 196 195 190 188 191 193 196 196 194 195 212 236 233 234 251 269 302 339 0 17 29 27 21 18 15 3 10 66 332 355 26 340 345 8 20 359 333 335 336 339 345 340 335 335 343 346 344 343 345 349 350 351 353
194 197 198 198 199 202 203 199 194 192 192 191 191 191 191 194 198 200 198 196 195 194 195 196 192 188 189 193 196 196 196 194 194 194 191 193 194 193 195 197 198 209 226 233 223 223 236 252 272 314 352 10 19 17 20 23 21 30 57 85 358 8 227 316 330 355 13 18 2 337 325 321 323 317 317 317 323 329 334 340 341 344 345 344 347
196 198 199 199 201 203 202 198 193 191 191 191 191 193 195 198 200 202 200 196 197 200 201 199 196 193 190 190 189 190 191 192 194 196 196 198 197 196 199 200 204 216 225 226 226 234 235 235 251 279 339 12 12 10 23 34 40 55 56 45 27 19 270 319 341 338 359 19 22 12 355 317 304 297 308 314 319 318 319 328 332 334 334 334 335
197 199 199 199 200 202 201 197 194 192 191 190 193 197 198 199 199 204 205 200 200 204 204 200 197 194 192 192 191 188 190 193 196 199 202 204 203 204 207 209 215 222 227 231 239 244 232 228 251 275 309 21 8 5 23 34 61 63 40 35 41 30 324 344 24 314 344 4 17 29 33 2 319 305 310 313 317 316 314 317 319 321 320 321 325
197 196 197 198 199 201 201 198 196 194 192 191 194 200 201 198 198 204 209 208 209 209 207 204 202 200 197 197 196 193 193 196 199 203 206 211 213 214 219 226 230 229 231 235 240 234 221 228 251 274 286 358 358 357 19 28 50 47 26 39 38 32 58 67 44 24 91 334 358 19 21 12 354 326 320 320 322 320 318 316 313 312 310 312 317
196 196 198 198 199 200 200 199 198 196 195 193 195 202 202 198 198 202 206 210 214 213 209 208 209 206 203 202 201 200 199 200 204 207 211 214 217 221 227 231 230 229 230 232 227 217 215 229 244 261 268 291 332 343 4 16 33 32 21 32 33 36 70 64 32 27 66 41 344 348 360 5 2 347 334 326 328 326 319 315 310 307 308 315 319
196 197 198 197 197 199 199 199 199 198 197 196 197 201 202 200 199 200 203 207 210 212 209 209 210 208 207 207 205 204 203 203 206 210 215 217 219 223 226 226 223 223 224 223 217 213 217 225 231 237 240 251 281 302 319 335 7 25 29 30 32 41 53 33 13 16 28 29 351 303 339 354 348 347 351 335 329 328 319 308 303 307 313 321 326
196 195 195 196 197 197 197 198 200 200 199 199 200 202 202 203 203 201 202 203 204 207 206 207 208 207 208 208 207 206 205 205 207 210 214 217 219 221 223 222 220 220 220 217 215 216 222 224 226 228 229 245 264 280 279 278 305 348 25 34 38 43 44 26 7 3 352 333 319 306 332 348 337 343 356 348 337 336 324 305 300 307 313 318 323